Guam Agana, GU

3:34 PM ChST on October 24, 2019 (GMT +1000)
Guam International

Weather History for PGUM - August, 2019

Change the Weather History Date:

Thursday, August 22, 2019

  Actual Average Record
Temperature  
Mean Temperature 83 °F -  
Max Temperature 88 °F 84 °F 89 °F (2007)
Min Temperature 78 °F 75 °F 73 °F (1996)
Cooling Degree Days 18    
Growing Degree Days 33 (Base 50)    
Moisture  
Dew Point 76 °F    
Average Humidity 79    
Maximum Humidity 90    
Minimum Humidity 70    
Precipitation  
Precipitation 0.04 in - - ()
Sea Level Pressure  
Sea Level Pressure 29.83 in    
Wind  
Wind Speed 8 mph ()    
Max Wind Speed 16 mph    
Max Gust Speed 32 mph    
Visibility 9.4 miles    
Events Rain    
Averages and records for this station are not official NWS values.
T = Trace of Precipitation, MM = Missing Value Source: Averaged Metar Reports

Daily Weather History Graph

Daily Weather History Graph

Search for Another Location

Airport or City:

Astronomy

Aug. 22, 2019 Rise Set
Actual Time 6:08 AM ChST 6:38 PM ChST
Civil Twilight 5:46 AM ChST 7:00 PM ChST
Nautical Twilight 5:21 AM ChST 7:26 PM ChST
Astronomical Twilight 4:55 AM ChST 7:51 PM ChST
Moon 11:08 PM ChST (8/22) 11:08 AM ChST (8/22)
Length of Visible Light 13h 13m
Length of Day
12h 30m
Waning Gibbous, 65% of the Moon is Illuminated
Aug 22
Waning Gibbous
Aug 24
Last Quarter
Aug 30
New
Sep 6
First Quarter
Sep 14
Full

Hourly Weather History & Observations

Time (ChST) Temp. Heat Index Dew Point Humidity Pressure Visibility Wind Dir Wind Speed Gust Speed Precip Events Conditions
12:54 AM 80.1 °F 85.4 °F 75.9 °F 87% 29.84 in 10.0 mi NNE 4.6 mph - N/A   Clear
1:54 AM 79.0 °F - 75.9 °F 90% 29.83 in 10.0 mi NNE 4.6 mph - N/A   Overcast
2:54 AM 78.1 °F - 73.9 °F 87% 29.81 in 10.0 mi NNE 5.8 mph - N/A   Clear
3:54 AM 79.0 °F - 75.0 °F 88% 29.82 in 10.0 mi NE 5.8 mph - N/A   Clear
5:54 AM 79.0 °F - 75.0 °F 88% 29.83 in 10.0 mi NNE 4.6 mph - N/A   Clear
7:54 AM 84.0 °F 93.7 °F 77.0 °F 79% 29.86 in 10.0 mi North 6.9 mph - N/A   Clear
8:54 AM 84.0 °F 92.6 °F 75.9 °F 76% 29.87 in 10.0 mi North 9.2 mph - N/A   Partly Cloudy
9:54 AM 86.0 °F 96.9 °F 77.0 °F 74% 29.86 in 10.0 mi NNW 9.2 mph - N/A   Scattered Clouds
10:54 AM 86.0 °F 96.9 °F 77.0 °F 74% 29.86 in 10.0 mi NNW 11.5 mph - N/A   Mostly Cloudy
11:54 AM 88.0 °F 100.2 °F 77.0 °F 70% 29.84 in 10.0 mi North 13.8 mph - N/A   Mostly Cloudy
12:05 PM 80.1 °F 85.4 °F 75.9 °F 87% 29.83 in 10.0 mi NNE 15.0 mph - 0.02 in   Mostly Cloudy
12:52 PM 80.6 °F 86.2 °F 75.2 °F 84% 29.85 in 1.8 mi NNE 13.8 mph 32.2 mph 0.01 in Rain Heavy Rain
12:54 PM 80.1 °F 85.4 °F 75.9 °F 87% 29.83 in 2.0 mi NNE 15.0 mph - 0.02 in Rain Heavy Rain
1:11 PM 80.1 °F 85.4 °F 75.9 °F 87% 29.83 in 10.0 mi North 10.4 mph - 0.02 in   Mostly Cloudy
1:54 PM 86.0 °F 95.1 °F 75.0 °F 70% 29.80 in 10.0 mi NNE 13.8 mph 20.7 mph 0.00 in   Mostly Cloudy
2:12 PM 84.9 °F 95.3 °F 77.0 °F 77% 29.82 in 10.0 mi North 11.5 mph - N/A   Mostly Cloudy
2:25 PM 86.0 °F 96.9 °F 77.0 °F 74% 29.81 in 10.0 mi North 10.4 mph - N/A   Mostly Cloudy
2:34 PM 87.1 °F 98.8 °F 77.0 °F 72% 29.81 in 10.0 mi North 15.0 mph - N/A   Mostly Cloudy
2:46 PM 86.0 °F 95.1 °F 75.0 °F 70% 29.81 in 10.0 mi NE 16.1 mph - N/A   Mostly Cloudy
2:54 PM 86.0 °F 95.1 °F 75.0 °F 70% 29.79 in 10.0 mi NNE 12.7 mph - N/A   Mostly Cloudy
3:54 PM 84.9 °F 93.3 °F 75.0 °F 72% 29.79 in 10.0 mi North 9.2 mph - N/A   Overcast
4:54 PM 86.0 °F 96.9 °F 77.0 °F 74% 29.80 in 10.0 mi NNW 11.5 mph - N/A   Mostly Cloudy
5:54 PM 86.0 °F 96.0 °F 75.9 °F 72% 29.81 in 10.0 mi North 12.7 mph - N/A   Scattered Clouds
6:54 PM 82.9 °F 90.8 °F 75.9 °F 79% 29.82 in 10.0 mi NNE 6.9 mph - N/A   Clear
7:54 PM 82.0 °F 88.6 °F 75.0 °F 79% 29.85 in 10.0 mi NE 6.9 mph - N/A   Clear
8:54 PM 82.0 °F 89.4 °F 75.9 °F 82% 29.86 in 10.0 mi NE 8.1 mph - N/A   Clear
9:54 PM 81.0 °F 87.3 °F 75.9 °F 85% 29.88 in 10.0 mi NNE 5.8 mph - N/A   Scattered Clouds
10:54 PM 82.4 °F 89.5 °F 75.2 °F 79% 29.87 in 10.0 mi NNE 9.2 mph - N/A   Clear
11:54 PM 80.6 °F 86.2 °F 75.2 °F 84% 29.86 in 10.0 mi North 6.9 mph - N/A   Clear